Radiation Dose at Monitoring Post of Fukushima Daini Nuclear Power Station
Date,Time,MP-1(microSv/h),MP-2(microSv/h),MP-3(microSv/h),MP-4(microSv/h),MP-5(microSv/h),MP-6(microSv/h),MP-7(microSv/h),Wind Direction,Wind Velocity(m/s),Rain
2015/06/11,00:00,0.512,0.297,0.539,0.486,0.463,0.241,0.216,west-northwest,1.0,No
2015/06/11,00:10,0.516,0.297,0.534,0.481,0.469,0.243,0.217,north-northwest,0.6,No
2015/06/11,00:20,0.511,0.297,0.540,0.486,0.464,0.243,0.216,-,CALM,No
2015/06/11,00:30,0.516,0.298,0.535,0.481,0.468,0.242,0.216,west-southwest,0.7,No
2015/06/11,00:40,0.513,0.297,0.539,0.486,0.462,0.241,0.215,west-northwest,1.1,No
2015/06/11,00:50,0.516,0.298,0.536,0.481,0.467,0.242,0.217,west-northwest,1.2,No
2015/06/11,01:00,0.512,0.296,0.540,0.486,0.462,0.242,0.215,west-southwest,1.8,No
2015/06/11,01:10,0.516,0.298,0.535,0.482,0.468,0.242,0.217,west-southwest,2.3,No
2015/06/11,01:20,0.510,0.296,0.539,0.486,0.461,0.242,0.216,west-southwest,2.0,No
2015/06/11,01:30,0.516,0.299,0.535,0.482,0.466,0.242,0.216,west,1.4,No
2015/06/11,01:40,0.512,0.297,0.540,0.486,0.461,0.240,0.216,northwest,2.6,No
2015/06/11,01:50,0.515,0.299,0.539,0.483,0.467,0.243,0.215,west-northwest,3.3,No
2015/06/11,02:00,0.515,0.296,0.539,0.486,0.464,0.240,0.216,north-northwest,1.2,No
2015/06/11,02:10,0.514,0.300,0.537,0.483,0.466,0.241,0.216,north-northeast,1.7,No
2015/06/11,02:20,0.516,0.297,0.538,0.484,0.465,0.241,0.216,north-northeast,1.7,No
2015/06/11,02:30,0.513,0.300,0.538,0.482,0.467,0.243,0.217,north-northeast,2.3,No
2015/06/11,02:40,0.515,0.296,0.538,0.485,0.467,0.242,0.217,north-northeast,2.2,No
2015/06/11,02:50,0.510,0.299,0.538,0.485,0.465,0.243,0.217,north-northeast,2.7,No
2015/06/11,03:00,0.516,0.296,0.536,0.483,0.466,0.241,0.217,northeast,2.6,No
2015/06/11,03:10,0.512,0.300,0.542,0.485,0.462,0.243,0.217,northeast,3.1,No
2015/06/11,03:20,0.518,0.297,0.535,0.482,0.469,0.242,0.217,north-northeast,2.0,No
2015/06/11,03:30,0.513,0.298,0.542,0.486,0.462,0.243,0.217,north-northeast,2.3,No
2015/06/11,03:40,0.518,0.297,0.536,0.483,0.468,0.241,0.217,north,2.2,No
2015/06/11,03:50,0.514,0.298,0.540,0.485,0.464,0.242,0.217,north,1.6,No
2015/06/11,04:00,0.515,0.296,0.538,0.481,0.468,0.240,0.216,north,1.0,No
2015/06/11,04:10,0.513,0.300,0.539,0.486,0.465,0.243,0.216,north,1.8,No
2015/06/11,04:20,0.511,0.296,0.540,0.483,0.469,0.241,0.218,north,2.1,No
2015/06/11,04:30,0.514,0.299,0.537,0.486,0.464,0.243,0.216,north,1.7,No
2015/06/11,04:40,0.512,0.297,0.539,0.482,0.468,0.242,0.218,north-northeast,1.9,No
2015/06/11,04:50,0.518,0.298,0.536,0.487,0.463,0.243,0.216,north,2.1,No
2015/06/11,05:00,0.511,0.296,0.540,0.482,0.469,0.241,0.216,north,2.2,No
2015/06/11,05:10,0.516,0.298,0.535,0.486,0.465,0.243,0.216,north-northeast,1.9,No
2015/06/11,05:20,0.511,0.297,0.538,0.482,0.465,0.242,0.217,north-northeast,2.1,No
2015/06/11,05:30,0.517,0.299,0.535,0.486,0.465,0.243,0.216,north-northeast,1.4,No
2015/06/11,05:40,0.511,0.296,0.541,0.483,0.465,0.242,0.217,north-northeast,1.4,No
2015/06/11,05:50,0.515,0.298,0.537,0.485,0.466,0.242,0.216,north-northeast,1.4,No
2015/06/11,06:00,0.513,0.298,0.540,0.484,0.461,0.243,0.217,north-northeast,0.6,No
2015/06/11,06:10,0.513,0.298,0.537,0.482,0.467,0.241,0.216,north-northeast,1.4,No
2015/06/11,06:20,0.516,0.299,0.535,0.485,0.462,0.242,0.217,-,CALM,No
2015/06/11,06:30,0.512,0.296,0.538,0.481,0.463,0.241,0.215,-,CALM,No
2015/06/11,06:40,0.517,0.297,0.536,0.485,0.466,0.242,0.217,west-southwest,0.7,No
2015/06/11,06:50,0.512,0.295,0.541,0.481,0.460,0.241,0.216,southwest,0.6,No
2015/06/11,07:00,0.512,0.295,0.536,0.484,0.465,0.240,0.215,south,1.0,No
2015/06/11,07:10,0.515,0.299,0.534,0.485,0.465,0.242,0.216,east,1.2,No
2015/06/11,07:20,0.509,0.295,0.540,0.479,0.460,0.240,0.217,east-northeast,2.5,No
2015/06/11,07:30,0.513,0.295,0.535,0.484,0.464,0.242,0.215,east,1.8,No
2015/06/11,07:40,0.517,0.299,0.532,0.484,0.468,0.241,0.217,east,2.2,No
2015/06/11,07:50,0.511,0.296,0.540,0.479,0.463,0.240,0.217,east-southeast,1.8,No
2015/06/11,08:00,0.516,0.295,0.537,0.484,0.464,0.241,0.215,southeast,1.8,No
2015/06/11,08:10,0.511,0.298,0.534,0.486,0.469,0.240,0.217,east-southeast,1.9,No
2015/06/11,08:20,0.510,0.297,0.541,0.481,0.463,0.241,0.216,east-southeast,1.2,No
2015/06/11,08:30,0.517,0.294,0.536,0.482,0.460,0.241,0.215,east-southeast,1.2,No
2015/06/11,08:40,0.514,0.298,0.532,0.486,0.467,0.241,0.215,east,2.2,No
2015/06/11,08:50,0.509,0.299,0.537,0.482,0.466,0.240,0.216,southeast,2.5,No
2015/06/11,09:00,0.508,0.296,0.537,0.479,0.461,0.242,0.217,southeast,2.2,No
2015/06/11,09:10,0.516,0.294,0.532,0.480,0.459,0.242,0.214,southeast,2.6,No
2015/06/11,09:20,0.515,0.294,0.534,0.485,0.466,0.241,0.213,southeast,2.8,No
2015/06/11,09:30,0.509,0.297,0.539,0.486,0.467,0.241,0.213,south-southeast,2.5,No
2015/06/11,09:40,0.509,0.298,0.537,0.480,0.464,0.241,0.214,southeast,2.4,No
2015/06/11,09:50,0.515,0.296,0.534,0.477,0.460,0.243,-,south-southeast,1.9,No
2015/06/11,10:00,0.517,0.295,0.536,0.478,0.460,0.242,-,south-southeast,2.9,No
2015/06/11,10:10,0.511,0.295,0.541,0.484,0.465,0.240,-,south-southeast,3.6,No
2015/06/11,10:20,0.509,0.295,0.536,0.485,0.466,0.241,-,south-southeast,4.2,No
2015/06/11,10:30,0.508,0.293,0.535,0.483,0.466,0.241,-,south,4.6,No
2015/06/11,10:40,0.509,0.295,0.534,0.482,0.465,0.243,-,south,4.6,No
2015/06/11,10:50,0.509,0.295,0.534,0.481,0.461,0.243,-,south-southeast,4.1,No
2015/06/11,11:00,0.507,0.297,0.533,0.480,0.461,0.242,-,south,3.7,No
2015/06/11,11:10,0.511,0.300,0.533,0.481,0.463,0.242,-,south-southeast,4.4,No
2015/06/11,11:20,0.509,0.299,0.535,0.480,0.462,0.242,-,south,3.9,No
2015/06/11,11:30,0.514,0.297,0.533,0.479,0.461,0.242,-,south,3.9,No
2015/06/11,11:40,0.518,0.298,0.535,0.479,0.464,0.243,-,south-southeast,4.6,No
2015/06/11,11:50,0.515,0.296,0.537,0.480,0.468,0.242,-,southeast,4.3,No
2015/06/11,12:00,0.516,0.296,0.538,0.482,0.471,0.244,-,southeast,4.2,No
2015/06/11,12:10,0.513,0.297,0.543,0.484,0.467,0.242,-,south-southeast,4.2,No
2015/06/11,12:20,0.511,0.301,0.543,0.491,0.463,0.242,-,south-southeast,3.5,No
2015/06/11,12:30,0.517,0.300,0.539,0.485,0.462,0.242,-,southeast,3.1,No
2015/06/11,12:40,0.518,0.298,0.540,0.487,0.461,0.242,-,southeast,3.1,No
2015/06/11,12:50,0.515,0.296,0.536,0.485,0.462,0.242,-,south-southeast,5.3,No
2015/06/11,13:00,0.512,0.295,0.537,0.482,0.466,0.242,-,south-southeast,6.4,No
2015/06/11,13:10,0.514,0.295,0.537,0.481,0.469,0.242,-,south-southeast,8.6,No
2015/06/11,13:20,0.521,0.299,0.535,0.481,0.468,0.244,-,south,10.5,No
2015/06/11,13:30,0.518,0.301,0.536,0.483,0.467,0.242,-,south,11.0,No
2015/06/11,13:40,0.513,0.299,0.537,0.485,0.464,0.241,-,south,11.0,No
2015/06/11,13:50,0.511,0.298,0.537,0.489,0.465,0.242,-,south,11.5,No
2015/06/11,14:00,0.517,0.296,0.536,0.489,0.460,0.241,-,south,11.1,No
2015/06/11,14:10,0.518,0.296,0.537,0.486,0.462,0.242,-,south,9.7,No
2015/06/11,14:20,0.516,0.295,0.540,0.483,0.460,0.242,-,south,10.1,No
2015/06/11,14:30,0.513,0.296,0.538,0.483,0.463,0.242,-,south,10.1,No
2015/06/11,14:40,0.510,0.297,0.539,0.483,0.463,0.242,-,south,10.4,No
2015/06/11,14:50,0.510,0.296,0.539,0.482,0.463,0.242,-,south,9.8,No
2015/06/11,15:00,0.514,0.296,0.540,0.483,0.463,0.242,0.212,south,11.0,No
2015/06/11,15:10,0.521,0.299,0.539,0.493,0.465,0.243,0.214,south,12.1,No
2015/06/11,15:20,0.518,0.302,0.540,0.491,0.461,0.245,0.214,south,11.9,No
2015/06/11,15:30,0.513,0.300,0.539,0.485,0.463,0.243,0.212,south,12.6,No
2015/06/11,15:40,0.517,0.298,0.542,0.486,0.463,0.243,0.213,south-southeast,12.0,No
2015/06/11,15:50,0.522,0.295,0.548,0.494,0.463,0.243,0.215,south,12.4,No
2015/06/11,16:00,0.518,0.298,0.545,0.487,0.469,0.243,0.213,south,11.8,No
2015/06/11,16:10,0.513,0.300,0.542,0.485,0.471,0.243,0.214,south,12.9,No
2015/06/11,16:20,0.518,0.298,0.541,0.492,0.468,0.243,0.215,south,10.7,No
2015/06/11,16:30,0.519,0.299,0.549,0.489,0.464,0.242,0.213,south,9.2,No
2015/06/11,16:40,0.515,0.301,0.545,0.485,0.468,0.243,0.215,south,9.8,No
2015/06/11,16:50,0.516,0.297,0.539,0.490,0.472,0.244,0.215,south,9.5,No
2015/06/11,17:00,0.520,0.298,0.547,0.488,0.467,0.243,0.213,south,9.5,No
2015/06/11,17:10,0.514,0.300,0.546,0.485,0.465,0.241,0.216,south,10.4,No
2015/06/11,17:20,0.516,0.298,0.540,0.491,0.473,0.243,0.215,south,10.1,No
2015/06/11,17:30,0.520,0.299,0.543,0.487,0.468,0.241,0.213,south,8.6,No
2015/06/11,17:40,0.517,0.300,0.545,0.484,0.462,0.241,0.214,south,9.6,No
2015/06/11,17:50,0.515,0.297,0.538,0.491,0.471,0.243,0.214,south-southwest,10.1,No
2015/06/11,18:00,0.518,0.300,0.547,0.487,0.468,0.242,0.215,south,9.6,No
2015/06/11,18:10,0.514,0.300,0.543,0.486,0.465,0.243,0.214,south-southwest,9.3,No
2015/06/11,18:20,0.516,0.297,0.539,0.490,0.471,0.242,0.214,south-southwest,8.9,No
2015/06/11,18:30,0.520,0.300,0.546,0.485,0.466,0.242,0.215,south-southwest,7.7,No
2015/06/11,18:40,0.512,0.298,0.544,0.488,0.467,0.243,0.214,south-southwest,8.2,No
2015/06/11,18:50,0.517,0.297,0.537,0.490,0.469,0.241,0.215,south-southwest,8.3,No
2015/06/11,19:00,0.518,0.301,0.544,0.485,0.463,0.243,0.215,south-southwest,8.6,No
2015/06/11,19:10,0.513,0.297,0.542,0.490,0.469,0.242,0.214,south-southwest,9.5,No
2015/06/11,19:20,0.521,0.300,0.539,0.488,0.466,0.243,0.214,south-southwest,9.5,No
2015/06/11,19:30,0.516,0.299,0.545,0.483,0.465,0.243,0.213,south-southwest,9.9,No
2015/06/11,19:40,0.515,0.298,0.539,0.490,0.470,0.242,0.216,south-southwest,10.1,No
2015/06/11,19:50,0.519,0.300,0.542,0.487,0.465,0.243,0.215,south-southwest,9.8,No
2015/06/11,20:00,0.513,0.298,0.545,0.488,0.468,0.242,0.214,south-southwest,9.1,No
2015/06/11,20:10,0.518,0.300,0.538,0.490,0.467,0.242,0.215,south,9.2,No
2015/06/11,20:20,0.517,0.299,0.545,0.484,0.464,0.242,0.213,south-southwest,8.3,No
2015/06/11,20:30,0.514,0.298,0.542,0.490,0.469,0.242,0.215,south-southwest,9.5,No
2015/06/11,20:40,0.521,0.299,0.539,0.488,0.466,0.245,0.213,south,8.2,No
2015/06/11,20:50,0.516,0.297,0.546,0.485,0.466,0.243,0.215,south-southwest,8.2,No
2015/06/11,21:00,0.516,0.300,0.540,0.490,0.469,0.243,0.213,south-southwest,8.3,No
2015/06/11,21:10,0.519,0.298,0.541,0.486,0.464,0.242,0.215,south-southwest,9.1,No
2015/06/11,21:20,0.513,0.299,0.545,0.489,0.468,0.242,0.215,south-southwest,8.8,No
2015/06/11,21:30,0.520,0.299,0.538,0.489,0.465,0.244,0.214,south-southwest,9.2,No
2015/06/11,21:40,0.518,0.297,0.546,0.485,0.466,0.242,0.214,south-southwest,9.5,No
2015/06/11,21:50,0.513,0.300,0.542,0.491,0.467,0.243,0.214,south-southwest,8.6,No
2015/06/11,22:00,0.519,0.298,0.538,0.486,0.463,0.242,0.214,south,7.3,No
2015/06/11,22:10,0.516,0.299,0.545,0.488,0.471,0.243,0.213,south-southwest,8.4,No
2015/06/11,22:20,0.516,0.299,0.540,0.489,0.464,0.244,0.215,south-southwest,8.3,No
2015/06/11,22:30,0.518,0.298,0.541,0.485,0.469,0.242,0.214,south,6.9,No
2015/06/11,22:40,0.514,0.299,0.543,0.490,0.468,0.243,0.213,south,6.1,No
2015/06/11,22:50,0.520,0.298,0.536,0.487,0.464,0.244,0.215,south-southwest,7.1,No
2015/06/11,23:00,0.513,0.300,0.547,0.487,0.469,0.243,0.213,south,7.2,No
2015/06/11,23:10,0.518,0.298,0.542,0.489,0.463,0.244,0.215,south-southwest,6.8,No
2015/06/11,23:20,0.518,0.300,0.540,0.485,0.470,0.241,0.214,south,6.4,No
2015/06/11,23:30,0.514,0.297,0.543,0.490,0.465,0.242,0.216,south-southwest,6.8,No
2015/06/11,23:40,0.520,0.299,0.537,0.486,0.465,0.244,0.215,south-southwest,7.1,No
2015/06/11,23:50,0.514,0.299,0.546,0.488,0.468,0.242,0.213,south-southwest,6.1,No
